Location: Bukovany
(49.8234°N, 14.6297°E)
Time: 17:08:29
(UTC+00:00)

NOAA 6 - Pass Details

Date: 17 November 2025
Orbit: 766 x 782 km, 98.6° (Epoch: 12 December)

Event Time Altitude Azimuth Distance (km) Brightness Sun altitude
Rises 17:52:21 0° 172° (S) 3,252 7.2 -25.1°
Reaches altitude 10° 17:54:40 10° 175° (S) 2,327 6.4 -25.4°
Maximum altitude 17:59:47 66° 257° (WSW) 849 4.3 -26.3°
Drops below altitude 10° 18:04:55 10° 340° (NNW) 2,335 6.7 -27.1°
Sets 18:07:15 0° 344° (NNW) 3,265 7.5 -27.5°
